星链-6334 (STARLINK-6334 )

导读 | 星芒AI

STARLINK-6334 是 SpaceX 星链计划中的一颗低轨通信卫星,属于第63组星链卫星的一部分。该卫星于2023年发射,部署在约550公里高度的近地轨道上,主要用于提供全球宽带互联网服务。星链项目旨在通过大规模卫星星座提升互联网接入的覆盖范围和速度,尤其服务于偏远地区。STARLINK-6334 采用先进的通信技术,具备高带宽和低延迟特性,是实现全球高速网络连接的重要组成部分。

基本信息
目录编号:
57238
目录名称:
STARLINK-6334
国际标识:
2023-094W
轨道中心:
EARTH
卫星名称:
星链-6334
卫星全名:
星链-6334 (STARLINK-6334 )
卫星状态:
在轨 (已飞行850 天)
发射日期:
2023-07-07 UTC
国别 :
美国 (US)
星等 :
--
轨道信息
数据来源 国际轨道数据
星历时间: 2025-11-02T18:38:42+0800
1天前
查看轨道信息
半长轴: 6937.222km
偏心率: 0.00013
轨道倾角: 43.004°
近地点辐角 268.866°
升交点赤经 349.192°
平近点角 91.204°
近地点: 558.185km
远地点: 559.989km
周期: 95.838分钟
每日圈数: 15.025345
详细信息
固有亮度:
5
最大亮度:
2.4
卫星平台:
Starlink v1.5
覆盖范围:
全球
运营商:
太空探索技术公司
运营商所在国:
美国
制造商(研发单位):
太空探索技术公司
制造商所在国:
美国
使用方式:
暂无
卫星简介
星链(Starlink)计划是由太空探索技术公司(SpaceX)提出的一个巨型低轨卫星互联网星座项目,计划在2019年至2024年间在太空搭建由约1.2万颗卫星组成的“星链”网络,其中1584颗将部署在地球上空550千米处的近地轨道,并从2020年开始工作。该卫星仍在工作。
2D轨道图
3D轨道图
轨道高度分析图
轨道倾角分析图
轨道综合分析图
查看轨道综合分析图